Location: Mascot Post Office (historical)
(40.2645°N, 99.5462°W)
Time: 02:03:41
(UTC+00:00)

ATLAS CENTAUR R/B - Pass Details

Date: 14 July 2020
Orbit: 475 x 672 km, 64.7° (Epoch: 13 July)

Event Time Altitude Azimuth Distance (km) Brightness Sun altitude
Rises 02:59:05 0° 322° (NW) 2,543 6.6 -9.0°
Reaches altitude 10° 03:01:16 10° 317° (NW) 1,651 5.4 -9.3°
Maximum altitude 03:04:48 48° 242° (WSW) 627 1.8 -9.8°
Drops below altitude 10° 03:08:19 10° 167° (SSE) 1,646 3.3 -10.3°
Enters shadow 03:08:23 10° 167° (SSE) 1,676 3.3 -10.3°
